Location: Azalea Creek
(37.1280°N, 119.2623°W)
Time: 21:50:18
(UTC+00:00)

Cosmos 921 Rocket - Pass Details

Date: 17 February 2020
Orbit: 572 x 631 km, 75.8° (Epoch: 29 March)

Event Time Altitude Azimuth Distance (km) Brightness Sun altitude
Rises 03:40:01 0° 206° (SSW) 2,884 6.8 -25.0°
Reaches altitude 10° 03:42:17 10° 212° (SSW) 1,989 6.0 -25.4°
Maximum altitude 03:46:37 51° 288° (WNW) 791 3.8 -26.3°
Enters shadow 03:48:50 27° 352° (N) 1,225 4.6 -26.7°
